Location: Peterborough
(44.3091°N, 78.3197°W)
Time: 06:29:24
(UTC-04:00)

A-11 Canister half - Pass Details

Date: 25 March 2023
Orbit: 1513 x 1686 km, 47.2° (Epoch: 04 June)

Event Time Altitude Azimuth Distance (km) Brightness Sun altitude
Rises 01:26:34 0° 271° (W) 4,870 11.6 -43.9°
Enters shadow 01:29:00 - 272° (W) 4,112 11.2 -43.9°
Exits shadow 01:44:28 38° 77° (ENE) 2,384 9.9 -43.6°
Drops below altitude 10° 01:50:01 10° 85° (E) 3,950 11.2 -43.5°
Sets 01:53:12 0° 88° (E) 4,932 11.8 -43.4°
